Needles, CA

10:07 AM PDT on May 26, 2017 (GMT -0700)
Needles

Weather History for KEED - January, 2013

Change the Weather History Date:

Sunday, January 27, 2013

  Actual Average Record
Temperature  
Mean Temperature 61 °F 55 °F  
Max Temperature 69 °F 66 °F 80 °F (1971)
Min Temperature 53 °F 44 °F 26 °F (1950)
Degree Days  
Heating Degree Days 4    
Cooling Degree Days 0    
Growing Degree Days 11 (Base 50)    
Moisture  
Dew Point 50 °F    
Average Humidity 70    
Maximum Humidity 94    
Minimum Humidity 36    
Precipitation  
Precipitation 0.00 in 0.02 in 0.80 in (1916)
Month to date precipitation 0.63  
Year to date precipitation 0.63  
Sea Level Pressure  
Sea Level Pressure 29.85 in    
Wind  
Wind Speed 5 mph (SW)    
Max Wind Speed 17 mph    
Max Gust Speed 28 mph    
Visibility 10 miles    
Events      
T = Trace of Precipitation, MM = Missing Value Source: NWS Daily Summary

Daily Weather History Graph

Daily Weather History Graph

Search for Another Location

Airport or City:

Trip Planner

Search our weather history database for the weather conditions in past years. The results will help you decide how hot, cold, wet, or windy it might be!

Date:

Astronomy

Jan. 27, 2013 Rise Set
Actual Time 6:40 AM PST 5:03 PM PST
Civil Twilight 6:13 AM PST 5:29 PM PST
Nautical Twilight 5:42 AM PST 6:00 PM PST
Astronomical Twilight 5:12 AM PST 6:30 PM PST
Moon 5:56 PM PST (1/27) 6:38 AM PST (1/27)
Length of Visible Light 11h 16m
Length of Day
10h 22m
Full, 100% of the Moon is Illuminated
Jan 27
Full
Feb 3
Last Quarter
Feb 9
New
Feb 17
First Quarter
Feb 25
Full

Hourly Weather History & Observations

Time (PST) Temp. Dew Point Humidity Pressure Visibility Wind Dir Wind Speed Gust Speed Precip Events Conditions
12:07 AM 57.2 °F 55.4 °F 94% 29.92 in 10.0 mi Calm Calm - N/A   Overcast
12:37 AM 59.0 °F 55.4 °F 88% 29.92 in 10.0 mi Calm Calm - N/A   Overcast
12:56 AM 60.1 °F 55.0 °F 83% 29.87 in 10.0 mi Calm Calm - N/A   Mostly Cloudy
1:08 AM 60.8 °F 55.4 °F 82% 29.92 in 10.0 mi Calm Calm - N/A   Mostly Cloudy
1:48 AM 59.0 °F 55.4 °F 88% 29.92 in 10.0 mi SSW 4.6 mph - N/A   Overcast
1:56 AM 60.1 °F 55.9 °F 86% 29.88 in 10.0 mi SSW 8.1 mph - N/A   Overcast
2:18 AM 60.8 °F 55.4 °F 82% 29.92 in 10.0 mi SW 9.2 mph - N/A   Overcast
2:56 AM 57.9 °F 55.0 °F 90% 29.87 in 10.0 mi Calm Calm - N/A   Mostly Cloudy
3:56 AM 59.0 °F 55.0 °F 87% 29.86 in 10.0 mi SW 6.9 mph - N/A   Partly Cloudy
4:56 AM 59.0 °F 55.0 °F 87% 29.86 in 10.0 mi SW 9.2 mph - N/A   Mostly Cloudy
5:14 AM 59.0 °F 55.4 °F 88% 29.91 in 10.0 mi SW 5.8 mph - N/A   Overcast
5:56 AM 57.9 °F 55.0 °F 90% 29.87 in 10.0 mi Calm Calm - N/A   Overcast
6:56 AM 57.0 °F 54.0 °F 89% 29.88 in 10.0 mi WSW 4.6 mph - N/A   Overcast
7:56 AM 59.0 °F 55.0 °F 87% 29.88 in 10.0 mi Calm Calm - N/A   Overcast
8:56 AM 62.1 °F 55.0 °F 78% 29.88 in 10.0 mi SSW 9.2 mph - N/A   Overcast
9:56 AM 64.0 °F 54.0 °F 70% 29.88 in 10.0 mi SSW 15.0 mph - N/A   Scattered Clouds
10:56 AM 64.9 °F 53.1 °F 65% 29.86 in 10.0 mi SSW 12.7 mph - N/A   Clear
11:56 AM 66.9 °F 51.1 °F 57% 29.84 in 10.0 mi SSW 15.0 mph 20.7 mph N/A   Mostly Cloudy
12:56 PM 68.0 °F 50.0 °F 52% 29.81 in 10.0 mi SW 16.1 mph 27.6 mph N/A   Partly Cloudy
1:56 PM 69.1 °F 46.0 °F 44% 29.78 in 10.0 mi SSW 17.3 mph 23.0 mph N/A   Mostly Cloudy
2:56 PM 68.0 °F 46.0 °F 45% 29.79 in 10.0 mi SSW 13.8 mph 20.7 mph N/A   Mostly Cloudy
3:56 PM 66.9 °F 45.0 °F 45% 29.78 in 10.0 mi South 17.3 mph - N/A   Mostly Cloudy
4:56 PM 64.9 °F 37.0 °F 36% 29.77 in 10.0 mi SSW 12.7 mph - N/A   Clear
5:56 PM 62.1 °F 42.1 °F 48% 29.79 in 10.0 mi SSW 11.5 mph - N/A   Clear
6:56 PM 60.1 °F 42.1 °F 51% 29.81 in 10.0 mi SW 9.2 mph - N/A   Clear
7:56 PM 59.0 °F 42.1 °F 53% 29.82 in 10.0 mi WSW 12.7 mph - N/A   Clear
8:56 PM 55.9 °F 41.0 °F 57% 29.82 in 10.0 mi WSW 9.2 mph - N/A   Clear
9:56 PM 53.1 °F 42.1 °F 66% 29.83 in 10.0 mi Calm Calm - N/A   Mostly Cloudy
10:56 PM 55.0 °F 41.0 °F 59% 29.83 in 10.0 mi Calm Calm - N/A   Overcast
11:56 PM 54.0 °F 37.0 °F 53% 29.84 in 10.0 mi West 9.2 mph - N/A   Overcast